Tracking 31027 objects as of 19-Jul-2025
HD Live streaming from Space Station
objects crossing your sky now

SL-14 DEB

Track SL-14 DEB now!
10-day predictions


NORAD ID: 46466
Int'l Code: 1991-056DB
Perigee: 1,179.2 km
Apogee: 1,189.6 km
Inclination: 82.6 °
Period: 108.9 minutes
Semi major axis: 7555 km
RCS: Unknown
Launch date: August 15, 1991
Source: Commonwealth of Independent States (former USSR) (CIS)
Launch site: PLESETSK MISSILE AND SPACE COMPLEX (PKMTR)

Note: This is SATELLITE DEBRIS
Your satellite tracking list
Your tracking list is empty




NASA's NSSDC Master Catalog

Two Line Element Set (TLE):
1 46466U 91056DB  25198.91495739  .00000744  00000-0  17683-2 0  9991
2 46466  82.5720  11.9557 0006880 171.0017 189.1232 13.21952258238545
Source of the keplerian elements: AFSPC